| time (UTC) | temp F | wind direction | speed knots | gust knots | rain 1hr in | rain 24hr in | rain mn in | humidity % | barometer mb |
| 20260505125000 | 60 | 137 | 0.0 | 0.9 | 0.00 | 0.00 | 0.00 | 83 | 1014.9 |
| 20260505124600 | 60 | 137 | 0.0 | 1.7 | 0.00 | 0.00 | 0.00 | 83 | 1014.8 |
| 20260505124000 | 59 | 137 | 0.0 | 1.7 | 0.00 | 0.00 | 0.00 | 83 | 1014.9 |
| 20260505123102 | 59 | 137 | 0.0 | 1.7 | 0.00 | 0.00 | 0.00 | 84 | 1014.8 |
| 20260505123000 | 59 | 137 | 0.0 | 1.7 | 0.00 | 0.00 | 0.00 | 84 | 1014.8 |
| 20260505122000 | 57 | 238 | 0.0 | 0.9 | 0.00 | 0.00 | 0.00 | 86 | 1014.8 |
| 20260505121559 | 57 | 238 | 0.0 | 0.0 | 0.00 | 0.00 | 0.00 | 86 | 1014.8 |
| 20260505121000 | 57 | 238 | 0.0 | 0.0 | 0.00 | 0.00 | 0.00 | 87 | 1014.7 |
| 20260505120104 | 56 | 238 | 0.0 | 0.0 | 0.00 | 0.00 | 0.00 | 88 | 1014.8 |
| 20260505120005 | 56 | 238 | 0.0 | 0.0 | 0.00 | 0.00 | 0.00 | 88 | 1014.8 |
| 20260505114601 | 55 | 238 | 0.0 | 0.0 | 0.00 | 0.00 | 0.00 | 88 | 1014.7 |
| 20260505113058 | 54 | 238 | 0.0 | 0.0 | 0.00 | 0.00 | 0.00 | 88 | 1014.5 |
| 20260505111558 | 54 | 238 | 0.0 | 0.0 | 0.00 | 0.00 | 0.00 | 88 | 1014.2 |
| 20260505110958 | 53 | 238 | 0.0 | 0.0 | 0.00 | 0.00 | 0.00 | 88 | 1014.0 |
| 20260505101958 | 52 | 238 | 0.0 | 0.0 | 0.00 | 0.00 | 0.00 | 86 | 1013.7 |
| 20260505101609 | 52 | 238 | 0.0 | 0.0 | 0.00 | 0.00 | 0.00 | 86 | 1013.7 |
| 20260505100958 | 52 | 238 | 0.0 | 0.0 | 0.00 | 0.00 | 0.00 | 86 | 1013.7 |
| 20260505100106 | 52 | 238 | 0.0 | 0.0 | 0.00 | 0.00 | 0.00 | 86 | 1013.7 |
| 20260505095959 | 52 | 238 | 0.0 | 0.0 | 0.00 | 0.00 | 0.00 | 86 | 1013.7 |
| 20260505094958 | 52 | 238 | 0.0 | 0.0 | 0.00 | 0.00 | 0.00 | 86 | 1013.7 |
| 20260505094556 | 52 | 238 | 0.0 | 0.0 | 0.00 | 0.00 | 0.00 | 86 | 1013.6 |
| 20260505093956 | 52 | 238 | 0.0 | 0.0 | 0.00 | 0.00 | 0.00 | 85 | 1013.7 |
| 20260505093103 | 53 | 238 | 0.0 | 0.0 | 0.00 | 0.00 | 0.00 | 85 | 1013.5 |
| 20260505092956 | 53 | 238 | 0.0 | 0.0 | 0.00 | 0.00 | 0.00 | 85 | 1013.5 |
| 20260505091956 | 53 | 238 | 0.0 | 0.0 | 0.00 | 0.00 | 0.00 | 85 | 1013.5 |
| 20260505091557 | 53 | 238 | 0.0 | 0.0 | 0.00 | 0.00 | 0.00 | 85 | 1013.4 |
| 20260505090956 | 53 | 238 | 0.0 | 0.0 | 0.00 | 0.00 | 0.00 | 85 | 1013.3 |
| 20260505090056 | 53 | 238 | 0.0 | 0.0 | 0.00 | 0.00 | 0.00 | 85 | 1013.0 |
| 20260505090000 | 53 | 238 | 0.0 | 0.0 | 0.00 | 0.00 | 0.00 | 85 | 1013.1 |
| 20260505084958 | 53 | 238 | 0.0 | 0.0 | 0.00 | 0.00 | 0.00 | 84 | 1013.0 |
| 20260505084605 | 53 | 238 | 0.0 | 0.0 | 0.00 | 0.00 | 0.00 | 84 | 1013.0 |
| 20260505083958 | 53 | 238 | 0.0 | 0.0 | 0.00 | 0.00 | 0.00 | 84 | 1012.9 |
| 20260505083102 | 53 | 238 | 0.0 | 0.0 | 0.00 | 0.00 | 0.00 | 84 | 1012.9 |
| 20260505082958 | 53 | 238 | 0.0 | 0.0 | 0.00 | 0.00 | 0.00 | 84 | 1013.0 |
| 20260505081959 | 53 | 238 | 0.0 | 0.0 | 0.00 | 0.00 | 0.00 | 83 | 1012.9 |
| 20260505081623 | 53 | 238 | 0.0 | 0.0 | 0.00 | 0.00 | 0.00 | 83 | 1013.0 |
| 20260505080958 | 53 | 238 | 0.0 | 0.0 | 0.00 | 0.00 | 0.00 | 83 | 1013.1 |
| 20260505075959 | 53 | 238 | 0.0 | 0.0 | 0.00 | 0.00 | 0.00 | 83 | 1013.1 |
| 20260505074958 | 53 | 238 | 0.0 | 0.0 | 0.00 | 0.00 | 0.00 | 82 | 1013.0 |
| 20260505074556 | 53 | 238 | 0.0 | 0.0 | 0.00 | 0.00 | 0.00 | 82 | 1012.8 |
| 20260505073958 | 53 | 238 | 0.0 | 0.0 | 0.00 | 0.00 | 0.00 | 82 | 1012.9 |
| 20260505073103 | 54 | 238 | 0.0 | 0.0 | 0.00 | 0.00 | 0.00 | 81 | 1013.1 |
| 20260505072956 | 54 | 238 | 0.0 | 0.0 | 0.00 | 0.00 | 0.00 | 81 | 1013.2 |
| 20260505071959 | 54 | 238 | 0.0 | 0.0 | 0.00 | 0.00 | 0.00 | 81 | 1013.3 |
| 20260505071557 | 54 | 238 | 0.0 | 0.0 | 0.00 | 0.00 | 0.00 | 81 | 1013.2 |
| 20260505070958 | 54 | 238 | 0.0 | 0.0 | 0.00 | 0.00 | 0.00 | 81 | 1013.4 |
| 20260505070100 | 54 | 238 | 0.0 | 0.0 | 0.00 | 0.00 | 0.00 | 81 | 1013.5 |
| 20260505064959 | 54 | 238 | 0.0 | 0.0 | 0.00 | 0.00 | 0.00 | 80 | 1013.7 |
| 20260505064556 | 55 | 238 | 0.0 | 0.0 | 0.00 | 0.00 | 0.00 | 81 | 1013.7 |
| 20260505063958 | 55 | 238 | 0.0 | 0.0 | 0.00 | 0.00 | 0.00 | 80 | 1013.8 |
| 20260505063112 | 55 | 238 | 0.0 | 0.0 | 0.00 | 0.00 | 0.00 | 80 | 1013.7 |
| 20260505062958 | 55 | 238 | 0.0 | 0.0 | 0.00 | 0.00 | 0.00 | 80 | 1013.8 |
| 20260505061958 | 55 | 238 | 0.0 | 0.0 | 0.00 | 0.00 | 0.00 | 80 | 1013.9 |
| 20260505061556 | 55 | 238 | 0.0 | 0.0 | 0.00 | 0.00 | 0.00 | 79 | 1014.1 |
| 20260505060956 | 56 | 238 | 0.0 | 0.0 | 0.00 | 0.00 | 0.00 | 79 | 1014.2 |
| 20260505060056 | 56 | 238 | 0.0 | 0.0 | 0.00 | 0.00 | 0.00 | 79 | 1014.3 |
| 20260505054958 | 56 | 238 | 0.0 | 0.0 | 0.00 | 0.00 | 0.00 | 78 | 1014.4 |
| 20260505054600 | 56 | 238 | 0.0 | 0.0 | 0.00 | 0.00 | 0.00 | 78 | 1014.5 |
| 20260505054000 | 56 | 238 | 0.0 | 0.0 | 0.00 | 0.00 | 0.00 | 78 | 1014.4 |
| 20260505053059 | 57 | 238 | 0.0 | 0.0 | 0.00 | 0.00 | 0.00 | 79 | 1014.4 |
| 20260505053001 | 57 | 238 | 0.0 | 0.0 | 0.00 | 0.00 | 0.00 | 79 | 1014.3 |
| 20260505051559 | 57 | 238 | 0.0 | 0.0 | 0.00 | 0.00 | 0.00 | 78 | 1014.3 |
| 20260505051000 | 57 | 238 | 0.0 | 0.0 | 0.00 | 0.00 | 0.00 | 78 | 1014.7 |
| 20260505050105 | 57 | 238 | 0.0 | 0.0 | 0.00 | 0.00 | 0.00 | 77 | 1014.5 |
| 20260505041559 | 59 | 238 | 0.0 | 0.0 | 0.00 | 0.00 | 0.00 | 73 | 1014.8 |
| 20260505041000 | 59 | 238 | 0.0 | 0.0 | 0.00 | 0.00 | 0.00 | 73 | 1014.6 |
| 20260505040100 | 60 | 238 | 0.0 | 0.0 | 0.00 | 0.00 | 0.00 | 73 | 1014.7 |
| 20260505040001 | 60 | 238 | 0.0 | 0.0 | 0.00 | 0.00 | 0.00 | 73 | 1014.6 |
| 20260505034959 | 60 | 238 | 0.0 | 0.0 | 0.00 | 0.00 | 0.00 | 73 | 1014.7 |
| 20260505034559 | 60 | 238 | 0.0 | 0.0 | 0.00 | 0.00 | 0.00 | 72 | 1014.9 |
| 20260505034000 | 61 | 238 | 0.0 | 0.0 | 0.00 | 0.00 | 0.00 | 72 | 1014.8 |
| 20260505033059 | 61 | 238 | 0.0 | 0.0 | 0.00 | 0.00 | 0.00 | 71 | 1014.7 |
| 20260505032959 | 61 | 238 | 0.0 | 0.0 | 0.00 | 0.00 | 0.00 | 71 | 1014.7 |
| 20260505031959 | 62 | 238 | 0.0 | 0.0 | 0.00 | 0.00 | 0.00 | 70 | 1014.9 |
| 20260505031559 | 62 | 238 | 0.0 | 0.0 | 0.00 | 0.00 | 0.00 | 70 | 1014.9 |
| 20260505030959 | 62 | 238 | 0.0 | 0.0 | 0.00 | 0.00 | 0.00 | 69 | 1014.8 |
| 20260505030059 | 63 | 238 | 0.0 | 0.0 | 0.00 | 0.00 | 0.00 | 69 | 1014.7 |
| 20260505030002 | 63 | 238 | 0.0 | 0.0 | 0.00 | 0.00 | 0.00 | 69 | 1014.7 |
| 20260505025000 | 64 | 238 | 0.0 | 0.0 | 0.00 | 0.00 | 0.00 | 68 | 1014.9 |
| 20260505024559 | 64 | 238 | 0.0 | 0.0 | 0.00 | 0.00 | 0.00 | 67 | 1014.8 |
| 20260505023104 | 65 | 238 | 0.0 | 0.0 | 0.00 | 0.00 | 0.00 | 65 | 1014.8 |
| 20260505022958 | 65 | 238 | 0.0 | 0.0 | 0.00 | 0.00 | 0.00 | 64 | 1014.8 |
| 20260505021557 | 65 | 238 | 0.0 | 0.0 | 0.00 | 0.00 | 0.00 | 62 | 1015.0 |
| 20260505020058 | 66 | 238 | 0.0 | 0.0 | 0.00 | 0.00 | 0.00 | 60 | 1015.0 |
| 20260505020001 | 67 | 238 | 0.0 | 0.0 | 0.00 | 0.00 | 0.00 | 60 | 1015.0 |
| 20260505014608 | 67 | 238 | 0.0 | 0.0 | 0.00 | 0.00 | 0.00 | 58 | 1015.0 |
| 20260505013959 | 68 | 238 | 0.0 | 0.0 | 0.00 | 0.00 | 0.00 | 57 | 1014.9 |
| 20260505013059 | 68 | 238 | 0.0 | 0.0 | 0.00 | 0.00 | 0.00 | 56 | 1015.0 |
| 20260505012959 | 68 | 238 | 0.0 | 0.0 | 0.00 | 0.00 | 0.00 | 56 | 1015.0 |
| 20260505011959 | 69 | 238 | 0.0 | 0.0 | 0.00 | 0.00 | 0.00 | 55 | 1014.8 |
| 20260505011559 | 69 | 238 | 0.0 | 0.0 | 0.00 | 0.00 | 0.00 | 54 | 1015.0 |
| 20260505010959 | 69 | 238 | 0.0 | 0.0 | 0.00 | 0.00 | 0.00 | 54 | 1015.0 |
| 20260505010117 | 70 | 238 | 0.0 | 0.0 | 0.00 | 0.00 | 0.00 | 53 | 1014.8 |
| 20260505010003 | 70 | 238 | 0.0 | 0.0 | 0.00 | 0.00 | 0.00 | 53 | 1014.9 |
| 20260505005000 | 70 | 238 | 0.0 | 0.0 | 0.00 | 0.00 | 0.00 | 52 | 1014.9 |
| 20260505004600 | 71 | 238 | 0.0 | 0.0 | 0.00 | 0.00 | 0.00 | 52 | 1014.9 |
| 20260505003959 | 71 | 238 | 0.0 | 0.9 | 0.00 | 0.00 | 0.00 | 51 | 1014.9 |
| 20260505003100 | 71 | 238 | 0.0 | 0.9 | 0.00 | 0.00 | 0.00 | 51 | 1014.7 |
| 20260505002959 | 71 | 238 | 0.0 | 0.9 | 0.00 | 0.00 | 0.00 | 50 | 1014.8 |
| 20260505001959 | 71 | 238 | 0.0 | 0.9 | 0.00 | 0.00 | 0.00 | 49 | 1014.6 |
| 20260505001559 | 71 | 238 | 0.0 | 0.9 | 0.00 | 0.00 | 0.00 | 49 | 1014.6 |
| 20260505000959 | 72 | 238 | 0.0 | 1.7 | 0.00 | 0.00 | 0.00 | 49 | 1014.7 |
| 20260505000100 | 72 | 238 | 0.0 | 0.9 | 0.00 | 0.00 | 0.00 | 49 | 1014.6 |
| 20260505000001 | 72 | 238 | 0.0 | 0.9 | 0.00 | 0.00 | 0.00 | 49 | 1014.6 |
| 20260504234959 | 72 | 238 | 0.9 | 2.6 | 0.00 | 0.00 | 0.00 | 48 | 1014.5 |
| 20260504234558 | 72 | 238 | 0.0 | 1.7 | 0.00 | 0.00 | 0.00 | 48 | 1014.6 |
| 20260504233959 | 72 | 238 | 0.0 | 1.7 | 0.00 | 0.00 | 0.00 | 48 | 1014.6 |
| 20260504233059 | 72 | 238 | 0.0 | 2.6 | 0.00 | 0.00 | 0.00 | 48 | 1014.7 |
| 20260504232959 | 72 | 238 | 0.0 | 2.6 | 0.00 | 0.00 | 0.00 | 48 | 1014.7 |
| 20260504231959 | 73 | 238 | 0.0 | 1.7 | 0.00 | 0.00 | 0.00 | 48 | 1014.6 |
| 20260504231600 | 73 | 238 | 0.0 | 1.7 | 0.00 | 0.00 | 0.00 | 48 | 1014.5 |
| 20260504230959 | 73 | 238 | 0.0 | 1.7 | 0.00 | 0.00 | 0.00 | 47 | 1014.6 |
| 20260504230059 | 73 | 238 | 0.0 | 2.6 | 0.00 | 0.00 | 0.00 | 45 | 1014.7 |
| 20260504230001 | 73 | 238 | 0.0 | 1.7 | 0.00 | 0.00 | 0.00 | 46 | 1014.6 |
| 20260504225000 | 73 | 238 | 0.0 | 4.3 | 0.00 | 0.00 | 0.00 | 43 | 1014.6 |
| 20260504224559 | 73 | 234 | 0.0 | 3.5 | 0.00 | 0.00 | 0.00 | 45 | 1014.7 |
| 20260504223958 | 73 | 234 | 0.0 | 4.3 | 0.00 | 0.00 | 0.00 | 44 | 1014.8 |
| 20260504223102 | 73 | 238 | 0.0 | 3.5 | 0.00 | 0.00 | 0.00 | 42 | 1014.9 |
| 20260504222958 | 73 | 238 | 0.0 | 3.5 | 0.00 | 0.00 | 0.00 | 42 | 1014.9 |
| 20260504221958 | 74 | 227 | 0.9 | 2.6 | 0.00 | 0.00 | 0.00 | 41 | 1014.7 |
| 20260504221611 | 74 | 227 | 0.0 | 2.6 | 0.00 | 0.00 | 0.00 | 42 | 1014.8 |
| 20260504220958 | 74 | 227 | 0.0 | 3.5 | 0.00 | 0.00 | 0.00 | 42 | 1014.8 |
| 20260504220059 | 74 | 227 | 0.0 | 3.5 | 0.00 | 0.00 | 0.00 | 43 | 1014.7 |
| 20260504220001 | 74 | 227 | 0.0 | 3.5 | 0.00 | 0.00 | 0.00 | 43 | 1014.7 |
| 20260504214959 | 74 | 236 | 1.7 | 6.1 | 0.00 | 0.00 | 0.00 | 41 | 1014.8 |
| 20260504214608 | 74 | 237 | 1.7 | 6.1 | 0.00 | 0.00 | 0.00 | 41 | 1014.9 |
| 20260504213112 | 74 | 230 | 0.0 | 1.7 | 0.00 | 0.00 | 0.00 | 40 | 1014.9 |
| 20260504213000 | 74 | 230 | 0.0 | 1.7 | 0.00 | 0.00 | 0.00 | 40 | 1014.9 |
| 20260504211959 | 75 | 230 | 0.9 | 3.5 | 0.00 | 0.00 | 0.00 | 40 | 1014.7 |
| 20260504211559 | 75 | 236 | 0.0 | 1.7 | 0.00 | 0.00 | 0.00 | 41 | 1014.7 |
| 20260504211000 | 75 | 236 | 0.9 | 1.7 | 0.00 | 0.00 | 0.00 | 40 | 1014.7 |
| 20260504210101 | 75 | 236 | 0.0 | 4.3 | 0.00 | 0.00 | 0.00 | 40 | 1014.5 |
| 20260504210003 | 75 | 236 | 0.0 | 4.3 | 0.00 | 0.00 | 0.00 | 39 | 1014.6 |
| 20260504210001 | 75 | 236 | 0.0 | 4.3 | 0.00 | 0.00 | 0.00 | 39 | 1014.6 |
| 20260504205000 | 75 | 234 | 1.7 | 3.5 | 0.00 | 0.00 | 0.00 | 40 | 1014.8 |
| 20260504204605 | 75 | 234 | 0.0 | 3.5 | 0.00 | 0.00 | 0.00 | 39 | 1014.8 |
| 20260504203059 | 75 | 232 | 0.9 | 3.5 | 0.00 | 0.00 | 0.00 | 39 | 1014.9 |
| 20260504201959 | 75 | 232 | 0.0 | 3.5 | 0.00 | 0.00 | 0.00 | 38 | 1015.0 |
| 20260504201559 | 75 | 226 | 0.0 | 3.5 | 0.00 | 0.00 | 0.00 | 39 | 1014.9 |
| 20260504200959 | 76 | 226 | 0.0 | 3.5 | 0.00 | 0.00 | 0.00 | 38 | 1015.1 |
| 20260504200103 | 76 | 234 | 0.0 | 2.6 | 0.00 | 0.00 | 0.00 | 38 | 1015.0 |
| 20260504200001 | 76 | 234 | 0.0 | 2.6 | 0.00 | 0.00 | 0.00 | 39 | 1015.0 |
| 20260504195000 | 77 | 234 | 0.9 | 4.3 | 0.00 | 0.00 | 0.00 | 38 | 1015.3 |
| 20260504194601 | 77 | 234 | 0.0 | 0.9 | 0.00 | 0.00 | 0.00 | 38 | 1015.2 |
| 20260504193959 | 77 | 234 | 0.0 | 1.7 | 0.00 | 0.00 | 0.00 | 37 | 1015.4 |
| 20260504193102 | 77 | 234 | 0.0 | 1.7 | 0.00 | 0.00 | 0.00 | 38 | 1015.4 |
| 20260504192958 | 77 | 234 | 0.0 | 1.7 | 0.00 | 0.00 | 0.00 | 37 | 1015.5 |
| 20260504191958 | 76 | 234 | 0.0 | 0.9 | 0.00 | 0.00 | 0.00 | 37 | 1015.6 |
| 20260504191603 | 76 | 234 | 0.0 | 1.7 | 0.00 | 0.00 | 0.00 | 38 | 1015.7 |
| 20260504190958 | 76 | 234 | 0.0 | 2.6 | 0.00 | 0.00 | 0.00 | 38 | 1015.6 |
| 20260504190058 | 77 | 234 | 0.0 | 3.5 | 0.00 | 0.00 | 0.00 | 38 | 1015.8 |
| 20260504185958 | 77 | 234 | 0.9 | 3.5 | 0.00 | 0.00 | 0.00 | 38 | 1015.9 |
| 20260504184959 | 77 | 238 | 0.0 | 1.7 | 0.00 | 0.00 | 0.00 | 37 | 1015.9 |
| 20260504184558 | 77 | 240 | 0.0 | 1.7 | 0.00 | 0.00 | 0.00 | 36 | 1015.9 |
| 20260504183058 | 77 | 119 | 0.0 | 1.7 | 0.00 | 0.00 | 0.00 | 37 | 1016.2 |
| 20260504182958 | 77 | 119 | 0.0 | 1.7 | 0.00 | 0.00 | 0.00 | 37 | 1016.2 |
| 20260504181958 | 76 | 97 | 0.0 | 1.7 | 0.00 | 0.00 | 0.00 | 36 | 1016.2 |
| 20260504181600 | 76 | 97 | 0.0 | 1.7 | 0.00 | 0.00 | 0.00 | 38 | 1016.1 |
| 20260504180958 | 76 | 97 | 0.0 | 0.9 | 0.00 | 0.00 | 0.00 | 38 | 1016.2 |
| 20260504174958 | 76 | 209 | 0.0 | 1.7 | 0.00 | 0.00 | 0.00 | 37 | 1016.3 |
| 20260504174559 | 75 | 225 | 0.0 | 0.9 | 0.00 | 0.00 | 0.00 | 38 | 1016.5 |
| 20260504173100 | 76 | 94 | 0.0 | 1.7 | 0.00 | 0.00 | 0.00 | 36 | 1016.8 |
| 20260504173001 | 76 | 82 | 0.9 | 1.7 | 0.00 | 0.00 | 0.00 | 35 | 1016.8 |
| 20260504171959 | 75 | 80 | 0.0 | 4.3 | 0.00 | 0.00 | 0.00 | 38 | 1016.8 |
| 20260504171601 | 75 | 80 | 0.0 | 4.3 | 0.00 | 0.00 | 0.00 | 38 | 1016.9 |
| 20260504170959 | 75 | 80 | 0.0 | 3.5 | 0.00 | 0.00 | 0.00 | 37 | 1016.8 |
| 20260504150959 | 73 | 109 | 0.0 | 2.6 | 0.00 | 0.00 | 0.00 | 40 | 1017.9 |
| 20260504150111 | 73 | 114 | 0.0 | 0.9 | 0.00 | 0.00 | 0.00 | 40 | 1017.8 |
| 20260504140959 | 70 | 115 | 0.0 | 1.7 | 0.00 | 0.00 | 0.00 | 45 | 1018.1 |